1998-067XX

Last updated on Sun Dec 14 2025 00:02:09 GMT+0000 (Coordinated Universal Time)

1 66911U 98067XX 25346.72367662 .00096916 00000+0 15692-2 0 9997 2 66911 51.6296 142.4333 0004979 210.3883 149.6819 15.51996459 1607
UTC large
Height (km)
Speed (km/s)
/
Latitude / Longitude
Inclination (degrees)
Orbital Period (minutes)
Azimuth
Elevation
Range (km)
Doppler Factor

Next 0 passes for location: London (51.5072 / 0.1276)

Sorry there are no passes over London.